Lid_Strength_Index
2 2 2 2 2 2 2 2 2 2 2 3 3 4 4 5 5 4 4 3 5 8 7 6 6 8 9 10 11 12 13 14 15 17 17 16 18 19 21 18 21 19 20 21 19 19 18 15 16 14 11 15 15 13
2 2 2 2 3 3 3 3 3 2 1 2 3 3 3 4 5 5 6 4 4 8 8 7 6 6 6 8 9 11 11 12 12 15 15 15 18 18 19 19 18 20 16 16 16 14 12 14 13 13 15 13 15 13
2 2 3 3 3 3 3 3 3 3 3 2 2 2 3 4 4 5 5 4 5 9 9 8 9 7 7 7 7 10 11 10 11 11 13 14 17 16 18 19 18 18 15 17 16 12 13 13 13 13 14 14 13 12
3 3 3 4 4 4 4 4 4 4 3 3 2 2 3 3 4 5 6 4 6 9 12 10 8 10 8 8 8 8 10 10 10 10 13 14 16 14 16 17 18 16 17 16 16 14 13 12 12 11 13 15 14 13
4 4 4 4 4 4 5 5 5 4 4 4 3 2 2 3 4 4 4 5 4 8 12 10 9 9 10 10 9 9 10 11 12 13 13 15 14 16 15 18 18 17 17 17 15 12 12 11 12 11 12 14 14 14
4 4 4 5 5 5 5 5 5 5 4 4 3 3 2 3 4 5 10 4 5 5 10 13 9 11 11 11 11 11 10 10 10 11 11 11 13 15 16 17 15 15 14 13 14 13 13 13 13 12 13 12 13 14
3 4 5 5 5 5 5 5 5 5 4 4 4 3 2 3 4 8 9 6 4 5 10 12 11 12 12 11 11 11 11 11 11 11 12 12 13 15 16 17 13 14 13 14 14 15 15 14 13 13 14 13 14 15
3 3 3 4 5 5 5 5 4 4 4 4 4 3 3 3 5 8 5 4 5 8 10 14 12 13 12 13 13 11 12 12 12 12 12 14 14 15 17 15 14 13 12 13 14 15 14 16 17 17 16 16 18 17
3 3 3 4 4 4 3 3 3 3 3 3 3 2 5 9 10 9 6 5 5 8 12 12 14 14 12 13 13 13 12 15 12 14 14 14 14 17 14 14 14 14 15 15 17 18 18 18 16 17 18 18 17 16
3 3 3 4 3 3 3 2 2 2 2 2 4 8 10 9 6 5 7 11 11 11 11 15 12 13 12 14 14 14 14 14 16 15 16 17 17 13 12 13 13 14 14 17 18 18 20 20 19 17 18 17 16 16
3 3 3 4 3 3 3 2 2 2 2 7 9 10 8 4 5 8 12 13 12 14 11 11 12 13 12 14 14 13 14 14 18 17 18 16 18 14 13 15 17 19 16 15 15 15 17 17 16 18 18 17 18 18
3 3 3 3 2 3 2 1 2 4 6 6 6 5 7 8 10 12 13 11 13 15 12 13 13 13 12 12 13 14 15 16 18 19 19 19 14 12 14 16 20 22 22 22 22 21 20 20 21 21 22 21 20 20
2 2 2 2 2 1 1 2 2 2 3 5 7 10 10 12 15 16 17 15 14 12 13 13 14 13 14 14 13 15 17 17 19 20 19 16 12 14 15 18 21 23 24 24 24 25 25 25 25 26 24 22 23 23
1 1 1 2 1 1 1 1 2 3 5 9 11 15 13 15 14 13 12 11 10 11 12 12 13 13 12 14 12 15 16 19 20 22 20 13 14 18 19 20 22 21 23 24 24 25 26 27 26 26 26 25 25 23
1 2 1 1 1 1 1 1 1 2 4 9 9 13 13 9 9 8 8 8 8 8 9 11 12 12 12 13 12 16 20 20 18 15 12 13 19 20 19 20 22 23 23 24 25 25 26 27 27 27 26 26 25 24
1 1 2 1 1 1 -0 -1 2 3 5 8 9 11 10 10 10 9 8 7 5 6 6 8 11 11 13 12 15 15 15 17 13 13 14 18 19 21 22 23 23 24 24 24 24 25 25 26 27 26 25 25 25 23
0 2 0 -0 -1 -2 -1 2 2 5 6 8 10 8 7 7 8 7 6 6 4 6 10 9 12 11 11 14 13 11 13 11 9 14 18 20 21 21 23 23 23 24 24 24 25 25 24 24 25 23 24 24 23 24
2 0 -1 -2 -1 -0 1 2 3 5 8 7 9 7 8 5 6 6 5 4 5 7 7 10 8 11 14 15 12 10 11 13 16 19 20 22 22 23 23 22 23 24 25 25 25 25 25 24 24 24 24 23 23 23
1 -0 -1 -1 -0 2 4 4 3 8 8 8 8 8 6 5 4 4 4 4 4 3 5 7 10 12 13 10 13 14 15 17 18 18 21 24 22 23 23 23 24 25 25 25 25 26 26 26 26 24 23 23 24 24
-1 -1 -1 -1 -0 4 6 6 5 7 10 8 8 8 6 6 4 4 5 5 5 6 8 10 11 10 10 10 15 17 18 19 20 20 20 21 21 22 22 22 24 24 24 25 25 25 24 25 25 25 25 25 25 26
-0 -0 -1 -0 3 4 6 7 8 8 9 9 8 8 7 8 7 7 6 5 7 9 10 8 8 7 17 18 18 19 21 21 20 19 18 21 22 22 23 23 24 24 24 24 25 26 26 27 26 25 26 26 26 26
2 -1 2 1 5 7 6 8 8 9 10 10 10 9 9 9 8 7 6 9 10 9 9 12 16 17 19 19 19 20 21 22 22 23 23 22 22 23 23 23 24 25 25 26 25 26 26 26 26 26 26 27 28 28
-0 1 4 4 7 8 10 10 10 10 11 11 10 10 10 10 8 7 10 10 13 18 19 20 19 19 20 19 20 20 21 22 23 23 23 23 24 24 24 24 24 25 27 28 26 26 27 26 26 26 27 27 27 28
1 4 6 8 7 11 12 13 12 12 12 11 12 12 11 9 9 11 14 11 17 20 21 20 20 20 20 21 21 21 21 21 22 23 23 24 26 26 26 27 27 27 27 26 26 27 27 27 27 27 27 28 29 29
8 8 8 11 12 14 16 15 15 14 14 13 13 11 11 10 13 14 14 14 22 22 23 23 20 19 20 21 22 22 21 21 23 24 25 25 26 27 28 28 28 28 26 26 27 28 28 28 28 28 29 29 30 30
11 12 12 12 15 14 15 17 16 15 14 14 13 12 12 13 16 16 16 24 25 26 26 27 26 24 21 22 22 23 24 22 23 25 26 24 24 25 27 27 27 28 27 26 26 28 28 28 29 30 30 30 30 30
15 15 15 18 15 15 17 16 15 14 16 15 14 15 15 20 18 18 25 26 26 26 26 26 27 27 25 23 24 24 25 25 24 26 26 27 27 26 25 26 28 28 26 26 26 27 29 30 30 31 32 32 32 31
13 18 17 19 19 19 18 17 16 15 13 17 15 17 17 16 15 24 26 26 27 27 27 26 25 25 24 24 25 25 26 26 26 26 26 27 27 27 26 26 26 26 27 27 28 28 29 30 31 32 32 33 33 32
19 20 17 25 23 20 18 16 15 18 22 18 15 18 19 25 27 28 27 27 27 27 27 26 25 24 24 24 25 25 25 25 25 26 28 29 28 29 26 27 27 27 27 28 27 30 31 31 32 33 33 33 32 32
21 19 20 24 20 17 22 25 24 26 25 26 27 28 28 28 28 26 28 29 28 27 26 25 25 24 25 26 26 27 27 28 27 25 26 27 28 28 27 27 28 27 27 28 29 29 27 29 29 30 31 31 32 32
20 20 23 24 25 25 26 26 26 27 28 29 29 27 27 28 27 27 28 27 27 27 27 26 26 25 25 26 26 27 27 28 28 27 27 27 28 28 29 29 29 29 29 30 30 30 31 31 32 33 34 34 35 34
21 21 21 22 27 28 28 28 28 28 29 29 29 29 29 29 30 29 28 29 29 28 26 26 26 27 27 27 28 28 27 28 28 28 28 29 29 29 29 29 29 30 30 31 31 31 32 32 33 34 35 36 37 37
23 24 26 27 30 31 29 28 28 28 28 28 28 29 30 29 29 29 29 29 29 27 27 28 27 27 27 28 28 28 28 27 27 26 27 28 29 29 30 30 30 31 31 32 32 33 33 34 35 36 37 37 38 38